| time (UTC) | temp C | wind direction | speed KPH | gust KPH | rain 1hr cm | rain 24hr cm | rain mn cm | humidity % | barometer mb |
| 20260508181556 | 23 | 144 | 1.6 | 11.3 | 0.00 | 0.00 | 0.00 | 48 | 1020.8 |
| 20260508181044 | 23 | 148 | 1.6 | 14.5 | 0.00 | 0.00 | 0.00 | 47 | 1020.8 |
| 20260508180546 | 23 | 161 | 3.2 | 14.5 | 0.00 | 0.00 | 0.00 | 45 | 1020.8 |
| 20260508180105 | 23 | 188 | 4.8 | 16.1 | 0.00 | 0.00 | 0.00 | 46 | 1020.8 |
| 20260508175548 | 23 | 160 | 3.2 | 16.1 | 0.00 | 0.00 | 0.00 | 46 | 1020.8 |
| 20260508175049 | 23 | 152 | 1.6 | 11.3 | 0.00 | 0.00 | 0.00 | 46 | 1020.7 |
| 20260508174611 | 23 | 152 | 3.2 | 11.3 | 0.00 | 0.00 | 0.00 | 46 | 1020.8 |
| 20260508174048 | 23 | 0 | 3.2 | 11.3 | 0.00 | 0.00 | 0.00 | 44 | 1020.7 |
| 20260508173547 | 23 | 267 | 3.2 | 11.3 | 0.00 | 0.00 | 0.00 | 44 | 1020.6 |
| 20260508173053 | 23 | 163 | 3.2 | 9.7 | 0.00 | 0.00 | 0.00 | 45 | 1020.7 |
| 20260508172548 | 23 | 170 | 3.2 | 12.9 | 0.00 | 0.00 | 0.00 | 46 | 1020.7 |
| 20260508172048 | 23 | 144 | 3.2 | 12.9 | 0.00 | 0.00 | 0.00 | 43 | 1020.7 |
| 20260508171552 | 23 | 169 | 1.6 | 12.9 | 0.00 | 0.00 | 0.00 | 43 | 1020.7 |
| 20260508171051 | 23 | 196 | 3.2 | 12.9 | 0.00 | 0.00 | 0.00 | 42 | 1020.7 |
| 20260508170549 | 22 | 0 | 1.6 | 9.7 | 0.00 | 0.00 | 0.00 | 42 | 1020.6 |
| 20260508170054 | 22 | 145 | 3.2 | 9.7 | 0.00 | 0.00 | 0.00 | 43 | 1020.6 |
| 20260508165547 | 22 | 176 | 1.6 | 9.7 | 0.00 | 0.03 | 0.00 | 46 | 1020.6 |
| 20260508165049 | 22 | 0 | 1.6 | 9.7 | 0.00 | 0.03 | 0.00 | 44 | 1020.6 |
| 20260508164558 | 22 | 125 | 1.6 | 8.0 | 0.00 | 0.03 | 0.00 | 46 | 1020.7 |
| 20260508164047 | 22 | 336 | 0.0 | 6.4 | 0.00 | 0.03 | 0.00 | 47 | 1020.6 |
| 20260508163549 | 21 | 0 | 0.0 | 6.4 | 0.00 | 0.03 | 0.00 | 50 | 1020.6 |
| 20260508163051 | 21 | 0 | 0.0 | 6.4 | 0.00 | 0.03 | 0.00 | 51 | 1020.6 |
| 20260508162547 | 21 | 144 | 1.6 | 6.4 | 0.00 | 0.03 | 0.00 | 51 | 1020.5 |
| 20260508162049 | 21 | 178 | 1.6 | 8.0 | 0.00 | 0.03 | 0.00 | 52 | 1020.6 |
| 20260508161556 | 20 | 202 | 0.0 | 8.0 | 0.00 | 0.03 | 0.00 | 53 | 1020.5 |
| 20260508161048 | 20 | 0 | 3.2 | 8.0 | 0.00 | 0.03 | 0.00 | 52 | 1020.5 |
| 20260508160633 | 19 | 0 | 0.0 | 4.8 | 0.00 | 0.03 | 0.00 | 53 | 1020.5 |
| 20260508160053 | 18 | 200 | 0.0 | 4.8 | 0.00 | 0.03 | 0.00 | 56 | 1020.5 |
| 20260508155549 | 18 | 0 | 0.0 | 6.4 | 0.00 | 0.03 | 0.00 | 56 | 1020.5 |
| 20260508155047 | 17 | 56 | 1.6 | 6.4 | 0.00 | 0.03 | 0.00 | 56 | 1020.4 |
| 20260508154553 | 17 | 278 | 0.0 | 3.2 | 0.00 | 0.03 | 0.00 | 61 | 1020.5 |
| 20260508154047 | 16 | 0 | 0.0 | 4.8 | 0.00 | 0.03 | 0.00 | 63 | 1020.5 |
| 20260508153548 | 16 | 136 | 0.0 | 4.8 | 0.00 | 0.03 | 0.00 | 60 | 1020.5 |
| 20260508153055 | 15 | 202 | 0.0 | 8.0 | 0.00 | 0.03 | 0.00 | 65 | 1020.5 |
| 20260508152546 | 15 | 37 | 0.0 | 8.0 | 0.00 | 0.03 | 0.00 | 63 | 1020.5 |
| 20260508152048 | 15 | 51 | 1.6 | 6.4 | 0.00 | 0.03 | 0.00 | 60 | 1020.5 |
| 20260508151553 | 14 | 48 | 1.6 | 9.7 | 0.00 | 0.03 | 0.00 | 64 | 1020.5 |
| 20260508151046 | 13 | 41 | 1.6 | 9.7 | 0.00 | 0.03 | 0.00 | 64 | 1020.5 |
| 20260508150546 | 13 | 37 | 1.6 | 6.4 | 0.00 | 0.03 | 0.00 | 62 | 1020.5 |
| 20260508150059 | 13 | 40 | 1.6 | 6.4 | 0.00 | 0.03 | 0.00 | 62 | 1020.5 |
| 20260508145544 | 13 | 40 | 1.6 | 6.4 | 0.00 | 0.03 | 0.00 | 65 | 1020.4 |
| 20260508145048 | 12 | 34 | 1.6 | 4.8 | 0.00 | 0.03 | 0.00 | 65 | 1020.4 |
| 20260508144556 | 12 | 45 | 0.0 | 3.2 | 0.00 | 0.03 | 0.00 | 64 | 1020.3 |
| 20260508144047 | 12 | 45 | 0.0 | 3.2 | 0.00 | 0.03 | 0.00 | 65 | 1020.2 |
| 20260508143545 | 11 | 46 | 0.0 | 3.2 | 0.00 | 0.03 | 0.00 | 66 | 1020.2 |
| 20260508143104 | 11 | 46 | 1.6 | 3.2 | 0.00 | 0.03 | 0.00 | 66 | 1020.2 |
| 20260508142545 | 11 | 0 | 1.6 | 3.2 | 0.00 | 0.03 | 0.00 | 68 | 1020.3 |
| 20260508142048 | 11 | 30 | 0.0 | 3.2 | 0.00 | 0.03 | 0.00 | 70 | 1020.2 |
| 20260508141554 | 11 | 30 | 0.0 | 4.8 | 0.00 | 0.03 | 0.00 | 71 | 1020.2 |
| 20260508141046 | 10 | 0 | 0.0 | 4.8 | 0.00 | 0.03 | 0.00 | 71 | 1020.2 |
| 20260508140544 | 10 | 30 | 0.0 | 3.2 | 0.00 | 0.03 | 0.00 | 70 | 1020.2 |
| 20260508140104 | 10 | 0 | 0.0 | 3.2 | 0.00 | 0.03 | 0.00 | 73 | 1020.3 |
| 20260508135545 | 10 | 0 | 0.0 | 3.2 | 0.00 | 0.03 | 0.00 | 73 | 1020.2 |
| 20260508135045 | 10 | 0 | 0.0 | 1.6 | 0.00 | 0.03 | 0.00 | 73 | 1020.2 |
| 20260508134602 | 10 | 0 | 0.0 | 1.6 | 0.00 | 0.03 | 0.00 | 73 | 1020.1 |
| 20260508134045 | 10 | 0 | 0.0 | 1.6 | 0.00 | 0.03 | 0.00 | 72 | 1020.1 |
| 20260508133545 | 10 | 0 | 0.0 | 0.0 | 0.00 | 0.03 | 0.00 | 72 | 1020.1 |
| 20260508133051 | 10 | 0 | 0.0 | 0.0 | 0.00 | 0.03 | 0.00 | 72 | 1020.1 |
| 20260508132549 | 10 | 0 | 0.0 | 0.0 | 0.00 | 0.03 | 0.00 | 72 | 1020.0 |
| 20260508132045 | 10 | 0 | 0.0 | 0.0 | 0.00 | 0.03 | 0.00 | 71 | 1020.0 |
| 20260508131555 | 10 | 0 | 0.0 | 0.0 | 0.00 | 0.03 | 0.00 | 70 | 1020.0 |
| 20260508131048 | 10 | 0 | 0.0 | 0.0 | 0.00 | 0.03 | 0.00 | 70 | 1020.0 |
| 20260508130547 | 10 | 0 | 0.0 | 0.0 | 0.00 | 0.03 | 0.00 | 72 | 1019.9 |
| 20260508130053 | 10 | 0 | 0.0 | 0.0 | 0.00 | 0.03 | 0.00 | 71 | 1019.8 |
| 20260508125548 | 10 | 0 | 0.0 | 0.0 | 0.00 | 0.03 | 0.00 | 69 | 1019.8 |
| 20260508125045 | 10 | 0 | 0.0 | 0.0 | 0.00 | 0.03 | 0.00 | 67 | 1019.8 |
| 20260508124558 | 10 | 0 | 0.0 | 0.0 | 0.00 | 0.03 | 0.00 | 68 | 1019.8 |
| 20260508124048 | 10 | 0 | 0.0 | 0.0 | 0.00 | 0.03 | 0.00 | 68 | 1019.7 |
| 20260508123545 | 10 | 0 | 0.0 | 0.0 | 0.00 | 0.03 | 0.00 | 70 | 1019.7 |
| 20260508123055 | 10 | 0 | 0.0 | 1.6 | 0.00 | 0.03 | 0.00 | 69 | 1019.7 |
| 20260508122545 | 10 | 0 | 0.0 | 3.2 | 0.00 | 0.03 | 0.00 | 70 | 1019.7 |
| 20260508122045 | 10 | 0 | 0.0 | 3.2 | 0.00 | 0.03 | 0.00 | 71 | 1019.7 |
| 20260508121557 | 10 | 12 | 0.0 | 1.6 | 0.00 | 0.03 | 0.00 | 71 | 1019.6 |
| 20260508121044 | 10 | 0 | 0.0 | 0.0 | 0.00 | 0.03 | 0.00 | 69 | 1019.6 |
| 20260508120545 | 10 | 0 | 0.0 | 0.0 | 0.00 | 0.03 | 0.00 | 72 | 1019.6 |
| 20260508120056 | 10 | 0 | 0.0 | 0.0 | 0.00 | 0.03 | 0.00 | 70 | 1019.6 |
| 20260508115546 | 10 | 0 | 0.0 | 0.0 | 0.00 | 0.03 | 0.00 | 73 | 1019.5 |
| 20260508115045 | 10 | 0 | 0.0 | 0.0 | 0.00 | 0.03 | 0.00 | 72 | 1019.5 |
| 20260508114604 | 10 | 0 | 0.0 | 0.0 | 0.00 | 0.03 | 0.00 | 72 | 1019.5 |
| 20260508114048 | 10 | 0 | 0.0 | 0.0 | 0.00 | 0.03 | 0.00 | 72 | 1019.6 |
| 20260508113545 | 10 | 0 | 0.0 | 0.0 | 0.00 | 0.03 | 0.00 | 72 | 1019.6 |
| 20260508113103 | 10 | 0 | 0.0 | 0.0 | 0.00 | 0.03 | 0.00 | 72 | 1019.6 |
| 20260508112547 | 10 | 0 | 0.0 | 0.0 | 0.00 | 0.03 | 0.00 | 73 | 1019.6 |
| 20260508112048 | 10 | 0 | 0.0 | 0.0 | 0.00 | 0.03 | 0.00 | 71 | 1019.6 |
| 20260508111600 | 10 | 0 | 0.0 | 0.0 | 0.00 | 0.03 | 0.00 | 71 | 1019.6 |
| 20260508111045 | 10 | 0 | 0.0 | 0.0 | 0.00 | 0.03 | 0.00 | 71 | 1019.6 |
| 20260508110546 | 10 | 0 | 0.0 | 0.0 | 0.00 | 0.03 | 0.00 | 71 | 1019.6 |
| 20260508110051 | 10 | 0 | 0.0 | 0.0 | 0.00 | 0.03 | 0.00 | 71 | 1019.6 |
| 20260508105548 | 11 | 0 | 0.0 | 0.0 | 0.00 | 0.03 | 0.00 | 72 | 1019.6 |
| 20260508105046 | 11 | 0 | 0.0 | 0.0 | 0.00 | 0.03 | 0.00 | 71 | 1019.6 |
| 20260508104600 | 11 | 0 | 0.0 | 0.0 | 0.00 | 0.03 | 0.00 | 71 | 1019.6 |
| 20260508104045 | 11 | 0 | 0.0 | 1.6 | 0.00 | 0.03 | 0.00 | 72 | 1019.6 |
| 20260508103549 | 11 | 0 | 0.0 | 1.6 | 0.00 | 0.03 | 0.00 | 73 | 1019.6 |
| 20260508103049 | 11 | 0 | 0.0 | 1.6 | 0.00 | 0.03 | 0.00 | 74 | 1019.6 |
| 20260508102546 | 11 | 0 | 0.0 | 0.0 | 0.00 | 0.03 | 0.00 | 72 | 1019.6 |
| 20260508102045 | 11 | 0 | 0.0 | 0.0 | 0.00 | 0.03 | 0.00 | 72 | 1019.7 |
| 20260508101554 | 11 | 0 | 0.0 | 0.0 | 0.00 | 0.03 | 0.00 | 72 | 1019.7 |
| 20260508101047 | 11 | 0 | 0.0 | 0.0 | 0.00 | 0.03 | 0.00 | 72 | 1019.7 |
| 20260508100547 | 11 | 0 | 0.0 | 0.0 | 0.00 | 0.03 | 0.00 | 71 | 1019.8 |
| 20260508100053 | 11 | 0 | 0.0 | 0.0 | 0.00 | 0.03 | 0.00 | 69 | 1019.8 |
| 20260508095546 | 11 | 0 | 0.0 | 0.0 | 0.00 | 0.03 | 0.00 | 72 | 1019.7 |
| 20260508095045 | 12 | 0 | 0.0 | 0.0 | 0.00 | 0.03 | 0.00 | 73 | 1019.7 |
| 20260508094602 | 12 | 0 | 0.0 | 0.0 | 0.00 | 0.03 | 0.00 | 72 | 1019.7 |
| 20260508094044 | 12 | 0 | 0.0 | 0.0 | 0.00 | 0.03 | 0.00 | 73 | 1019.7 |
| 20260508093547 | 12 | 0 | 0.0 | 0.0 | 0.00 | 0.03 | 0.00 | 73 | 1019.6 |
| 20260508093100 | 12 | 0 | 0.0 | 0.0 | 0.00 | 0.03 | 0.00 | 71 | 1019.6 |
| 20260508092545 | 12 | 0 | 0.0 | 3.2 | 0.00 | 0.03 | 0.00 | 71 | 1019.7 |
| 20260508092044 | 12 | 0 | 0.0 | 3.2 | 0.00 | 0.03 | 0.00 | 71 | 1019.7 |
| 20260508091605 | 12 | 0 | 0.0 | 3.2 | 0.00 | 0.03 | 0.00 | 70 | 1019.7 |
| 20260508091045 | 12 | 0 | 0.0 | 3.2 | 0.00 | 0.03 | 0.00 | 69 | 1019.8 |
| 20260508090546 | 12 | 12 | 0.0 | 3.2 | 0.00 | 0.03 | 0.00 | 68 | 1019.8 |
| 20260508090105 | 12 | 0 | 0.0 | 4.8 | 0.00 | 0.03 | 0.00 | 68 | 1019.8 |
| 20260508085545 | 12 | 24 | 0.0 | 4.8 | 0.00 | 0.03 | 0.00 | 67 | 1019.9 |
| 20260508085045 | 12 | 5 | 0.0 | 3.2 | 0.00 | 0.03 | 0.00 | 65 | 1019.9 |
| 20260508084556 | 12 | 35 | 0.0 | 1.6 | 0.00 | 0.03 | 0.00 | 64 | 1020.0 |
| 20260508084044 | 12 | 0 | 0.0 | 3.2 | 0.00 | 0.03 | 0.00 | 64 | 1020.0 |
| 20260508083545 | 12 | 0 | 0.0 | 3.2 | 0.00 | 0.03 | 0.00 | 65 | 1020.1 |
| 20260508083107 | 12 | 0 | 0.0 | 3.2 | 0.00 | 0.03 | 0.00 | 64 | 1020.1 |
| 20260508082548 | 12 | 0 | 0.0 | 3.2 | 0.00 | 0.03 | 0.00 | 63 | 1020.2 |
| 20260508082045 | 12 | 0 | 0.0 | 3.2 | 0.00 | 0.03 | 0.00 | 63 | 1020.2 |
| 20260508081601 | 12 | 0 | 0.0 | 3.2 | 0.00 | 0.03 | 0.00 | 64 | 1020.3 |
| 20260508081045 | 12 | 0 | 0.0 | 4.8 | 0.00 | 0.03 | 0.00 | 65 | 1020.3 |
| 20260508080544 | 12 | 360 | 1.6 | 4.8 | 0.00 | 0.03 | 0.00 | 65 | 1020.3 |
| 20260508080101 | 12 | 360 | 0.0 | 3.2 | 0.00 | 0.03 | 0.00 | 65 | 1020.3 |
| 20260508075545 | 12 | 0 | 0.0 | 3.2 | 0.00 | 0.05 | 0.00 | 65 | 1020.4 |
| 20260508075044 | 12 | 0 | 0.0 | 3.2 | 0.00 | 0.05 | 0.00 | 65 | 1020.5 |
| 20260508074603 | 12 | 0 | 0.0 | 3.2 | 0.00 | 0.05 | 0.00 | 65 | 1020.5 |
| 20260508074044 | 12 | 0 | 0.0 | 3.2 | 0.00 | 0.05 | 0.00 | 65 | 1020.5 |
| 20260508073545 | 12 | 0 | 0.0 | 3.2 | 0.00 | 0.05 | 0.00 | 66 | 1020.5 |
| 20260508073055 | 12 | 15 | 0.0 | 3.2 | 0.00 | 0.05 | 0.00 | 66 | 1020.5 |
| 20260508072544 | 12 | 0 | 0.0 | 3.2 | 0.00 | 0.05 | 0.00 | 65 | 1020.6 |
| 20260508072048 | 11 | 0 | 0.0 | 1.6 | 0.00 | 0.05 | 0.00 | 64 | 1020.6 |
| 20260508071555 | 12 | 0 | 0.0 | 1.6 | 0.00 | 0.05 | 0.00 | 64 | 1020.6 |
| 20260508071048 | 12 | 0 | 0.0 | 3.2 | 0.00 | 0.05 | 0.00 | 64 | 1020.7 |
| 20260508070549 | 12 | 0 | 0.0 | 3.2 | 0.00 | 0.05 | 0.00 | 64 | 1020.6 |
| 20260508070054 | 12 | 0 | 0.0 | 1.6 | 0.00 | 0.05 | 0.00 | 65 | 1020.6 |
| 20260508065545 | 12 | 0 | 0.0 | 4.8 | 0.00 | 0.05 | 0.05 | 62 | 1020.7 |
| 20260508065044 | 12 | 0 | 0.0 | 4.8 | 0.00 | 0.05 | 0.05 | 64 | 1020.7 |
| 20260508064556 | 12 | 0 | 0.0 | 3.2 | 0.00 | 0.05 | 0.05 | 64 | 1020.8 |
| 20260508064050 | 12 | 0 | 0.0 | 3.2 | 0.00 | 0.05 | 0.05 | 66 | 1020.7 |
| 20260508063545 | 12 | 0 | 0.0 | 3.2 | 0.00 | 0.05 | 0.05 | 64 | 1020.8 |
| 20260508063052 | 12 | 0 | 0.0 | 3.2 | 0.00 | 0.05 | 0.05 | 65 | 1020.8 |
| 20260508062544 | 12 | 0 | 0.0 | 3.2 | 0.00 | 0.05 | 0.05 | 63 | 1020.8 |
| 20260508062047 | 12 | 0 | 0.0 | 3.2 | 0.00 | 0.05 | 0.05 | 63 | 1020.8 |
| 20260508061554 | 12 | 0 | 0.0 | 3.2 | 0.00 | 0.05 | 0.05 | 64 | 1020.7 |
| 20260508061044 | 12 | 0 | 0.0 | 3.2 | 0.00 | 0.05 | 0.05 | 65 | 1020.6 |
| 20260508060545 | 12 | 16 | 0.0 | 3.2 | 0.00 | 0.05 | 0.05 | 66 | 1020.6 |
| 20260508060053 | 12 | 0 | 0.0 | 4.8 | 0.00 | 0.05 | 0.05 | 67 | 1020.6 |
| 20260508055547 | 12 | 5 | 0.0 | 4.8 | 0.00 | 0.05 | 0.05 | 66 | 1020.6 |
| 20260508055048 | 12 | 34 | 0.0 | 3.2 | 0.00 | 0.05 | 0.05 | 67 | 1020.6 |
| 20260508054551 | 12 | 23 | 0.0 | 3.2 | 0.00 | 0.05 | 0.05 | 68 | 1020.7 |
| 20260508054047 | 12 | 23 | 0.0 | 3.2 | 0.00 | 0.05 | 0.05 | 69 | 1020.7 |
| 20260508053548 | 12 | 0 | 0.0 | 1.6 | 0.00 | 0.05 | 0.05 | 68 | 1020.7 |
| 20260508053100 | 12 | 23 | 0.0 | 3.2 | 0.00 | 0.05 | 0.05 | 67 | 1020.8 |
| 20260508052547 | 12 | 0 | 0.0 | 3.2 | 0.00 | 0.05 | 0.05 | 67 | 1020.8 |
| 20260508052047 | 12 | 0 | 0.0 | 3.2 | 0.00 | 0.05 | 0.05 | 68 | 1020.8 |
| 20260508051604 | 12 | 23 | 0.0 | 4.8 | 0.00 | 0.05 | 0.05 | 70 | 1020.8 |
| 20260508051045 | 12 | 40 | 0.0 | 4.8 | 0.00 | 0.05 | 0.05 | 70 | 1020.7 |
| 20260508050545 | 12 | 0 | 0.0 | 4.8 | 0.00 | 0.05 | 0.05 | 69 | 1020.6 |
| 20260508050058 | 12 | 29 | 0.0 | 3.2 | 0.00 | 0.05 | 0.05 | 70 | 1020.6 |
| 20260508045544 | 13 | 11 | 0.0 | 1.6 | 0.00 | 0.05 | 0.05 | 72 | 1020.7 |
| 20260508045045 | 13 | 11 | 0.0 | 3.2 | 0.00 | 0.05 | 0.05 | 74 | 1020.7 |
| 20260508044555 | 13 | 0 | 0.0 | 3.2 | 0.00 | 0.05 | 0.05 | 74 | 1020.7 |
| 20260508044046 | 13 | 0 | 0.0 | 3.2 | 0.00 | 0.05 | 0.05 | 74 | 1020.7 |
| 20260508043546 | 13 | 0 | 0.0 | 3.2 | 0.00 | 0.05 | 0.05 | 73 | 1020.7 |
| 20260508043056 | 13 | 11 | 1.6 | 4.8 | 0.00 | 0.05 | 0.05 | 73 | 1020.6 |
| 20260508042545 | 13 | 0 | 0.0 | 4.8 | 0.00 | 0.05 | 0.05 | 73 | 1020.6 |
| 20260508042048 | 13 | 34 | 0.0 | 3.2 | 0.00 | 0.05 | 0.05 | 73 | 1020.6 |
| 20260508041605 | 13 | 22 | 0.0 | 3.2 | 0.00 | 0.05 | 0.05 | 74 | 1020.6 |
| 20260508041046 | 13 | 0 | 0.0 | 3.2 | 0.00 | 0.05 | 0.05 | 74 | 1020.5 |
| 20260508040548 | 13 | 22 | 0.0 | 3.2 | 0.00 | 0.05 | 0.05 | 75 | 1020.5 |
| 20260508040057 | 13 | 0 | 0.0 | 3.2 | 0.00 | 0.05 | 0.05 | 75 | 1020.4 |
| 20260508035548 | 13 | 22 | 0.0 | 3.2 | 0.00 | 0.05 | 0.05 | 75 | 1020.4 |
| 20260508035049 | 13 | 22 | 0.0 | 3.2 | 0.00 | 0.05 | 0.05 | 76 | 1020.4 |
| 20260508034600 | 13 | 22 | 1.6 | 3.2 | 0.00 | 0.05 | 0.05 | 76 | 1020.4 |
| 20260508034048 | 13 | 22 | 0.0 | 3.2 | 0.00 | 0.05 | 0.05 | 76 | 1020.4 |
| 20260508033548 | 13 | 0 | 0.0 | 1.6 | 0.00 | 0.05 | 0.05 | 74 | 1020.4 |
| 20260508033104 | 13 | 0 | 0.0 | 1.6 | 0.00 | 0.05 | 0.05 | 74 | 1020.3 |
| 20260508032641 | 13 | 0 | 0.0 | 1.6 | 0.00 | 0.05 | 0.05 | 75 | 1020.3 |
| 20260508032545 | 13 | 0 | 0.0 | 1.6 | 0.00 | 0.05 | 0.05 | 75 | 1020.3 |
| 20260508032046 | 13 | 0 | 0.0 | 1.6 | 0.00 | 0.05 | 0.05 | 76 | 1020.2 |
| 20260508031556 | 13 | 22 | 0.0 | 1.6 | 0.00 | 0.05 | 0.05 | 76 | 1020.2 |
| 20260508031044 | 13 | 0 | 0.0 | 0.0 | 0.00 | 0.05 | 0.05 | 74 | 1020.1 |
| 20260508030547 | 13 | 0 | 0.0 | 1.6 | 0.00 | 0.05 | 0.05 | 73 | 1020.0 |
| 20260508030052 | 13 | 0 | 0.0 | 1.6 | 0.00 | 0.05 | 0.05 | 73 | 1020.0 |
| 20260508025546 | 14 | 0 | 0.0 | 1.6 | 0.00 | 0.05 | 0.05 | 73 | 1019.9 |
| 20260508025045 | 14 | 0 | 0.0 | 3.2 | 0.00 | 0.05 | 0.05 | 73 | 1019.9 |
| 20260508024557 | 14 | 22 | 0.0 | 3.2 | 0.00 | 0.05 | 0.05 | 74 | 1019.9 |
| 20260508024045 | 15 | 22 | 0.0 | 3.2 | 0.00 | 0.05 | 0.05 | 75 | 1019.8 |
| 20260508023545 | 15 | 17 | 0.0 | 3.2 | 0.00 | 0.05 | 0.05 | 75 | 1019.8 |
| 20260508023056 | 15 | 0 | 0.0 | 3.2 | 0.00 | 0.05 | 0.05 | 73 | 1019.7 |
| 20260508022548 | 15 | 0 | 0.0 | 3.2 | 0.00 | 0.05 | 0.05 | 74 | 1019.7 |
| 20260508022045 | 15 | 64 | 0.0 | 3.2 | 0.00 | 0.05 | 0.05 | 74 | 1019.8 |
| 20260508021606 | 16 | 0 | 0.0 | 3.2 | 0.00 | 0.05 | 0.05 | 75 | 1019.8 |
| 20260508021045 | 16 | 0 | 0.0 | 3.2 | 0.00 | 0.05 | 0.05 | 77 | 1019.7 |
| 20260508020547 | 16 | 0 | 0.0 | 3.2 | 0.00 | 0.05 | 0.05 | 74 | 1019.7 |
| 20260508020053 | 16 | 0 | 0.0 | 1.6 | 0.00 | 0.05 | 0.05 | 74 | 1019.7 |
| 20260508015546 | 17 | 0 | 0.0 | 1.6 | 0.00 | 0.05 | 0.05 | 73 | 1019.7 |
| 20260508015044 | 17 | 0 | 0.0 | 4.8 | 0.00 | 0.05 | 0.05 | 71 | 1019.8 |
| 20260508014552 | 17 | 288 | 0.0 | 4.8 | 0.00 | 0.05 | 0.05 | 71 | 1019.8 |
| 20260508014050 | 17 | 288 | 1.6 | 4.8 | 0.00 | 0.05 | 0.05 | 70 | 1019.8 |
| 20260508013545 | 18 | 0 | 0.0 | 4.8 | 0.00 | 0.05 | 0.05 | 69 | 1019.8 |
| 20260508013051 | 18 | 0 | 0.0 | 9.7 | 0.00 | 0.05 | 0.05 | 67 | 1019.7 |
| 20260508012550 | 18 | 0 | 0.0 | 9.7 | 0.00 | 0.05 | 0.05 | 66 | 1019.8 |
| 20260508012045 | 18 | 0 | 3.2 | 9.7 | 0.00 | 0.05 | 0.05 | 64 | 1019.8 |
| 20260508011606 | 18 | 202 | 0.0 | 6.4 | 0.00 | 0.05 | 0.05 | 66 | 1019.8 |
| 20260508011045 | 19 | 178 | 0.0 | 8.0 | 0.00 | 0.05 | 0.05 | 66 | 1019.9 |
| 20260508010545 | 19 | 323 | 0.0 | 8.0 | 0.00 | 0.05 | 0.05 | 65 | 1019.9 |
| 20260508010050 | 20 | 296 | 1.6 | 8.0 | 0.00 | 0.05 | 0.05 | 64 | 1019.9 |
| 20260508005548 | 20 | 0 | 0.0 | 11.3 | 0.00 | 0.05 | 0.05 | 64 | 1019.8 |
| 20260508005044 | 20 | 188 | 1.6 | 12.9 | 0.00 | 0.05 | 0.05 | 63 | 1019.8 |
| 20260508004558 | 20 | 178 | 3.2 | 12.9 | 0.00 | 0.05 | 0.05 | 61 | 1019.8 |
| 20260508004045 | 20 | 200 | 3.2 | 12.9 | 0.00 | 0.05 | 0.05 | 61 | 1019.7 |
| 20260508003544 | 20 | 239 | 1.6 | 16.1 | 0.00 | 0.05 | 0.05 | 61 | 1019.7 |
| 20260508003053 | 21 | 243 | 3.2 | 16.1 | 0.00 | 0.05 | 0.05 | 60 | 1019.7 |
| 20260508002545 | 21 | 180 | 3.2 | 11.3 | 0.00 | 0.05 | 0.05 | 58 | 1019.7 |
| 20260508002047 | 21 | 187 | 0.0 | 9.7 | 0.00 | 0.05 | 0.05 | 58 | 1019.7 |
| 20260508001553 | 21 | 155 | 4.8 | 11.3 | 0.00 | 0.05 | 0.05 | 54 | 1019.7 |
| 20260508001044 | 21 | 140 | 4.8 | 14.5 | 0.00 | 0.05 | 0.05 | 54 | 1019.7 |
| 20260508000546 | 21 | 190 | 4.8 | 14.5 | 0.00 | 0.05 | 0.05 | 52 | 1019.7 |
| 20260508000050 | 21 | 202 | 4.8 | 12.9 | 0.00 | 0.05 | 0.05 | 53 | 1019.7 |
| 20260507235545 | 22 | 192 | 1.6 | 16.1 | 0.00 | 0.05 | 0.05 | 52 | 1019.7 |
| 20260507235045 | 22 | 181 | 4.8 | 16.1 | 0.00 | 0.05 | 0.05 | 53 | 1019.7 |
| 20260507234559 | 22 | 146 | 1.6 | 16.1 | 0.00 | 0.05 | 0.05 | 52 | 1019.6 |
| 20260507234045 | 22 | 0 | 4.8 | 16.1 | 0.00 | 0.05 | 0.05 | 52 | 1019.6 |
| 20260507233545 | 22 | 145 | 3.2 | 9.7 | 0.00 | 0.05 | 0.05 | 52 | 1019.7 |
| 20260507233052 | 22 | 167 | 1.6 | 11.3 | 0.00 | 0.05 | 0.05 | 50 | 1019.6 |
| 20260507232544 | 22 | 159 | 1.6 | 11.3 | 0.00 | 0.05 | 0.05 | 48 | 1019.6 |
| 20260507232046 | 22 | 219 | 4.8 | 14.5 | 0.00 | 0.05 | 0.05 | 51 | 1019.6 |
| 20260507231605 | 22 | 205 | 4.8 | 16.1 | 0.00 | 0.05 | 0.05 | 47 | 1019.6 |
| 20260507231046 | 22 | 164 | 6.4 | 16.1 | 0.00 | 0.05 | 0.05 | 47 | 1019.6 |
| 20260507230546 | 23 | 142 | 4.8 | 14.5 | 0.00 | 0.05 | 0.05 | 46 | 1019.6 |
| 20260507230058 | 23 | 169 | 1.6 | 17.7 | 0.00 | 0.05 | 0.05 | 47 | 1019.6 |
| 20260507225547 | 23 | 182 | 3.2 | 17.7 | 0.00 | 0.05 | 0.05 | 44 | 1019.6 |
| 20260507225049 | 23 | 242 | 3.2 | 16.1 | 0.00 | 0.05 | 0.05 | 45 | 1019.6 |
| 20260507224626 | 23 | 173 | 3.2 | 16.1 | 0.00 | 0.05 | 0.05 | 46 | 1019.5 |
| 20260507224045 | 23 | 331 | 3.2 | 12.9 | 0.00 | 0.05 | 0.05 | 48 | 1019.6 |
| 20260507223548 | 23 | 144 | 4.8 | 12.9 | 0.00 | 0.05 | 0.05 | 46 | 1019.6 |
| 20260507223056 | 23 | 153 | 4.8 | 16.1 | 0.00 | 0.05 | 0.05 | 46 | 1019.6 |
| 20260507222547 | 23 | 159 | 3.2 | 16.1 | 0.00 | 0.05 | 0.05 | 47 | 1019.7 |
| 20260507222047 | 23 | 202 | 1.6 | 8.0 | 0.00 | 0.05 | 0.05 | 46 | 1019.6 |
| 20260507221558 | 23 | 109 | 1.6 | 16.1 | 0.00 | 0.05 | 0.05 | 45 | 1019.7 |
| 20260507221146 | 23 | 315 | 3.2 | 16.1 | 0.00 | 0.05 | 0.05 | 43 | 1019.9 |
| 20260507221046 | 23 | 315 | 3.2 | 16.1 | 0.00 | 0.05 | 0.05 | 43 | 1019.9 |
| 20260507220546 | 23 | 161 | 1.6 | 12.9 | 0.00 | 0.05 | 0.05 | 47 | 1019.8 |
| 20260507220050 | 23 | 16 | 3.2 | 12.9 | 0.00 | 0.05 | 0.05 | 44 | 1019.9 |
| 20260507215545 | 23 | 153 | 4.8 | 14.5 | 0.00 | 0.05 | 0.05 | 44 | 1020.0 |
| 20260507215045 | 23 | 343 | 4.8 | 14.5 | 0.00 | 0.05 | 0.05 | 43 | 1020.1 |
| 20260507214556 | 23 | 205 | 3.2 | 11.3 | 0.00 | 0.05 | 0.05 | 45 | 1020.1 |
| 20260507214047 | 23 | 76 | 3.2 | 14.5 | 0.00 | 0.05 | 0.05 | 45 | 1020.0 |
| 20260507213551 | 23 | 173 | 3.2 | 14.5 | 0.00 | 0.05 | 0.05 | 43 | 1020.0 |
| 20260507213051 | 23 | 126 | 4.8 | 14.5 | 0.00 | 0.05 | 0.05 | 39 | 1020.1 |
| 20260507212548 | 23 | 222 | 6.4 | 19.3 | 0.00 | 0.05 | 0.05 | 41 | 1020.2 |
| 20260507212047 | 22 | 176 | 4.8 | 20.9 | 0.00 | 0.05 | 0.05 | 43 | 1020.0 |
| 20260507211551 | 23 | 134 | 4.8 | 20.9 | 0.00 | 0.05 | 0.05 | 41 | 1020.0 |
| 20260507211043 | 23 | 186 | 6.4 | 17.7 | 0.00 | 0.05 | 0.05 | 37 | 1020.0 |
| 20260507210548 | 23 | 153 | 4.8 | 17.7 | 0.00 | 0.05 | 0.05 | 43 | 1020.1 |
| 20260507210051 | 23 | 201 | 3.2 | 17.7 | 0.00 | 0.05 | 0.05 | 38 | 1020.2 |
| 20260507205549 | 23 | 146 | 4.8 | 17.7 | 0.00 | 0.08 | 0.05 | 42 | 1020.3 |
| 20260507205045 | 23 | 154 | 1.6 | 12.9 | 0.00 | 0.08 | 0.05 | 46 | 1020.3 |
| 20260507204553 | 23 | 128 | 4.8 | 12.9 | 0.00 | 0.08 | 0.05 | 45 | 1020.3 |
| 20260507204047 | 23 | 144 | 3.2 | 17.7 | 0.00 | 0.08 | 0.05 | 47 | 1020.3 |
| 20260507203547 | 23 | 119 | 6.4 | 17.7 | 0.00 | 0.08 | 0.05 | 45 | 1020.4 |
| 20260507203048 | 23 | 180 | 4.8 | 17.7 | 0.00 | 0.08 | 0.05 | 47 | 1020.3 |
| 20260507202545 | 23 | 127 | 4.8 | 12.9 | 0.00 | 0.08 | 0.05 | 44 | 1020.3 |
| 20260507202047 | 23 | 290 | 3.2 | 11.3 | 0.00 | 0.08 | 0.05 | 47 | 1020.3 |
| 20260507201600 | 23 | 121 | 4.8 | 16.1 | 0.00 | 0.08 | 0.05 | 47 | 1020.4 |
| 20260507201048 | 23 | 197 | 4.8 | 16.1 | 0.00 | 0.08 | 0.05 | 41 | 1020.5 |
| 20260507200551 | 23 | 188 | 1.6 | 14.5 | 0.00 | 0.08 | 0.05 | 41 | 1020.4 |
| 20260507200056 | 23 | 228 | 6.4 | 14.5 | 0.00 | 0.08 | 0.05 | 40 | 1020.4 |
| 20260507195547 | 23 | 129 | 1.6 | 14.5 | 0.00 | 0.08 | 0.05 | 40 | 1020.4 |
| 20260507195050 | 23 | 192 | 3.2 | 17.7 | 0.00 | 0.08 | 0.05 | 45 | 1020.5 |
| 20260507194556 | 23 | 149 | 4.8 | 19.3 | 0.00 | 0.08 | 0.05 | 43 | 1020.4 |
| 20260507194044 | 23 | 111 | 4.8 | 19.3 | 0.00 | 0.08 | 0.05 | 43 | 1020.4 |
| 20260507193547 | 23 | 173 | 4.8 | 16.1 | 0.00 | 0.08 | 0.05 | 41 | 1020.3 |
| 20260507193053 | 23 | 162 | 6.4 | 16.1 | 0.00 | 0.08 | 0.05 | 41 | 1020.4 |
| 20260507192547 | 23 | 145 | 3.2 | 11.3 | 0.00 | 0.08 | 0.05 | 42 | 1020.5 |
| 20260507192045 | 23 | 167 | 1.6 | 11.3 | 0.00 | 0.08 | 0.05 | 41 | 1020.5 |
| 20260507191551 | 23 | 164 | 6.4 | 14.5 | 0.00 | 0.08 | 0.05 | 39 | 1020.6 |
| 20260507191044 | 23 | 166 | 3.2 | 14.5 | 0.00 | 0.08 | 0.05 | 43 | 1020.6 |
| 20260507190544 | 24 | 208 | 1.6 | 9.7 | 0.00 | 0.08 | 0.05 | 44 | 1020.7 |
| 20260507190049 | 24 | 136 | 3.2 | 12.9 | 0.00 | 0.08 | 0.05 | 38 | 1020.8 |
| 20260507185544 | 25 | 209 | 4.8 | 12.9 | 0.00 | 0.08 | 0.05 | 38 | 1020.7 |
| 20260507185047 | 25 | 180 | 0.0 | 6.4 | 0.00 | 0.08 | 0.05 | 35 | 1020.7 |
| 20260507184550 | 25 | 352 | 0.0 | 11.3 | 0.00 | 0.08 | 0.05 | 26 | 1020.8 |
| 20260507184047 | 24 | 307 | 3.2 | 11.3 | 0.00 | 0.08 | 0.05 | 23 | 1021.0 |
| 20260507183550 | 24 | 205 | 3.2 | 11.3 | 0.00 | 0.08 | 0.05 | 24 | 1020.9 |
| 20260507183051 | 24 | 165 | 1.6 | 8.0 | 0.00 | 0.08 | 0.05 | 28 | 1021.0 |
| 20260507182545 | 24 | 213 | 1.6 | 9.7 | 0.00 | 0.08 | 0.05 | 25 | 1021.0 |
| 20260507182048 | 24 | 186 | 1.6 | 9.7 | 0.00 | 0.08 | 0.05 | 29 | 1021.0 |